Weather in Bugdatepe

Russia / Republic of Dagestan     41°45′46″N   48°23′43″E
temp.,
°C
wind,
m/s
gust,
m/s
humid.,
%
clouds,
%
prec.,
mm/h
press.,
hPa
HPBL,
m
13 may, thu
thu1300:00+10ssw11895 0.0 101510
03:00+10s22915 0.0 101510
06:00+13sse35865 0.0 1014129
09:00+19ese44635 0.0 1014468
12:00+22e43575 0.0 1013510
15:00+21nne32626 0.0 1013297
18:00+17ne11780 0.0 101444
21:00+14wnw118449 0.0 101510
14 may, fri
fri1400:00+14e01855 0.0 101411
03:00+13sse11801 0.0 101411
06:00+18sse116745 0.0 101533
09:00+24ese474834 0.0 1015432
12:00+26ese6104452 0.0 1014545
15:00+25se6134681 0.0 1013568
18:00+20se375175 0.0 1014141
21:00+16wsw11515 0.0 101411
15 may, sat
sat1500:00+17ssw22695 0.0 101412
03:00+16ssw22644 0.0 101311
06:00+19ssw22633 0.0 101428
09:00+25se49355 0.0 1014485
12:00+28ese69284 0.0 1013729
15:00+26se512330 0.0 1013568
18:00+21ese22560 0.0 101315
21:00+16ssw22550 0.0 101411
16 may, sun
sun1600:00+16sw22610 0.0 101313
03:00+16ssw22530 0.0 101213
06:00+18ssw23580 0.0 101250
09:00+25se510340 0.0 1011540
12:00+29ese912310 0.0 10091077
15:00+27ese1016380 0.0 1008743
18:00+21se718470 0.0 1008423
21:00+17ssw22550 0.0 100921
17 may, mon
mon1700:00+17ssw22390 0.0 100816
03:00+17ssw22350 0.0 100716
06:00+19ssw22465 0.0 100729
09:00+25e21375 0.0 1006388
12:00+27ene3237100 0.0 1006597
15:00+26ne22455 0.0 1005307
18:00+19nw35670 0.1 1005138
21:00+17w22670 0.1 100618